Temp
-9 -9 -9 -9 -9 -9 -8 -8 -9 -8 -8 -8 -8 -8 -8 -8 -8 -7 -7 -7 -7 -7 -7 -7 -7 -7 -7 -7 -7 -7 -7 -7 -6 -6 -6 -6 -6 -6 -6 -6 -5 -5 -5 -5 -5 -5 -5 -6 -6
-10 -10 -10 -10 -9 -9 -9 -9 -9 -8 -8 -8 -8 -8 -8 -8 -8 -8 -7 -7 -7 -7 -7 -7 -7 -7 -7 -7 -6 -7 -7 -7 -7 -7 -6 -6 -6 -6 -6 -6 -6 -6 -5 -6 -5 -5 -5 -6 -6
-10 -10 -10 -10 -9 -9 -9 -9 -9 -9 -8 -8 -8 -8 -8 -8 -8 -8 -8 -8 -7 -8 -7 -7 -7 -7 -7 -7 -7 -6 -7 -7 -7 -7 -7 -6 -6 -6 -6 -6 -6 -6 -6 -6 -6 -6 -6 -6 -6
-11 -11 -10 -10 -10 -9 -10 -10 -9 -9 -9 -8 -8 -8 -8 -8 -8 -8 -8 -8 -8 -7 -8 -7 -7 -7 -7 -7 -8 -7 -7 -6 -7 -7 -7 -7 -6 -6 -6 -6 -6 -6 -6 -6 -6 -6 -6 -6 -6
-11 -11 -11 -10 -10 -10 -10 -9 -9 -9 -9 -9 -9 -8 -8 -8 -8 -8 -8 -8 -8 -7 -8 -8 -8 -8 -7 -8 -8 -8 -8 -7 -6 -7 -7 -7 -7 -6 -6 -6 -6 -6 -6 -6 -6 -6 -6 -6 -6
-11 -11 -11 -11 -11 -11 -10 -10 -9 -9 -9 -9 -9 -9 -8 -8 -8 -8 -8 -8 -8 -8 -8 -8 -8 -8 -8 -8 -8 -8 -9 -8 -7 -7 -7 -7 -7 -7 -7 -7 -6 -6 -6 -6 -6 -6 -6 -6 -6
-11 -11 -11 -11 -11 -11 -11 -10 -10 -10 -9 -10 -9 -9 -9 -9 -9 -8 -8 -8 -8 -8 -8 -8 -8 -8 -8 -8 -8 -8 -8 -8 -8 -7 -7 -7 -7 -7 -7 -7 -7 -6 -6 -6 -7 -6 -6 -6 -7
-12 -12 -12 -12 -11 -11 -11 -10 -10 -10 -10 -10 -10 -10 -10 -11 -9 -8 -8 -8 -8 -9 -8 -8 -8 -8 -8 -8 -8 -8 -8 -8 -8 -8 -7 -7 -7 -7 -7 -7 -7 -7 -7 -7 -7 -7 -7 -7 -7
-12 -12 -12 -12 -12 -11 -11 -11 -11 -11 -10 -10 -11 -10 -10 -10 -9 -8 -8 -8 -8 -8 -9 -8 -8 -8 -8 -8 -8 -8 -8 -9 -9 -8 -8 -8 -7 -7 -7 -7 -7 -7 -7 -7 -7 -7 -7 -7 -7
-12 -12 -12 -12 -12 -12 -12 -11 -11 -12 -12 -12 -11 -10 -10 -10 -10 -9 -8 -8 -8 -9 -9 -9 -8 -8 -8 -8 -8 -8 -8 -9 -9 -9 -9 -8 -8 -8 -8 -7 -7 -7 -7 -7 -7 -7 -7 -7 -7
-13 -13 -12 -12 -12 -12 -12 -12 -12 -12 -13 -12 -11 -11 -10 -10 -10 -10 -10 -9 -8 -9 -9 -9 -9 -8 -8 -8 -8 -8 -8 -8 -9 -9 -9 -9 -8 -8 -8 -8 -8 -8 -7 -8 -7 -7 -7 -7 -7
-13 -13 -13 -13 -13 -13 -13 -14 -14 -14 -13 -13 -13 -12 -12 -11 -10 -10 -10 -10 -10 -9 -9 -9 -9 -9 -8 -8 -8 -8 -9 -8 -8 -9 -9 -9 -9 -9 -8 -9 -8 -8 -8 -8 -8 -8 -7 -7 -7
-14 -14 -14 -15 -15 -15 -15 -15 -15 -15 -14 -13 -13 -13 -13 -12 -11 -11 -10 -10 -10 -10 -9 -9 -9 -9 -9 -9 -8 -8 -9 -9 -9 -9 -9 -9 -9 -9 -9 -9 -9 -8 -8 -8 -7 -8 -8 -8 -8
-15 -16 -16 -16 -16 -15 -15 -16 -15 -14 -14 -14 -14 -14 -13 -13 -13 -12 -11 -10 -9 -10 -9 -9 -9 -9 -9 -9 -9 -9 -9 -9 -9 -9 -9 -9 -9 -9 -9 -9 -9 -9 -8 -8 -8 -8 -8 -8 -8
-17 -17 -16 -16 -16 -15 -16 -16 -15 -15 -14 -14 -14 -14 -14 -13 -13 -12 -12 -10 -10 -10 -10 -10 -9 -9 -9 -9 -9 -9 -9 -9 -9 -9 -9 -9 -9 -9 -9 -10 -10 -9 -9 -9 -8 -8 -8 -8 -8
-16 -16 -17 -16 -16 -15 -16 -16 -15 -15 -15 -15 -15 -15 -15 -14 -13 -12 -12 -11 -11 -10 -10 -10 -10 -8 -9 -9 -9 -9 -9 -9 -9 -9 -9 -9 -9 -10 -10 -10 -10 -9 -9 -9 -9 -9 -9 -9 -8
-17 -16 -17 -16 -16 -16 -16 -16 -15 -15 -15 -15 -15 -15 -15 -14 -15 -15 -14 -12 -11 -11 -10 -10 -10 -9 -8 -9 -9 -9 -9 -9 -9 -10 -9 -9 -9 -10 -10 -11 -10 -9 -9 -9 -9 -9 -9 -9 -9
-18 -17 -17 -17 -16 -16 -16 -16 -16 -15 -15 -14 -14 -15 -15 -15 -15 -15 -14 -13 -12 -10 -10 -11 -11 -11 -9 -9 -10 -9 -9 -9 -10 -10 -10 -9 -10 -10 -10 -10 -10 -9 -10 -10 -10 -9 -9 -9 -9
-18 -18 -17 -18 -17 -16 -16 -16 -16 -15 -15 -14 -14 -14 -14 -15 -15 -14 -13 -13 -13 -13 -10 -10 -10 -11 -11 -10 -9 -10 -9 -10 -9 -10 -10 -10 -10 -10 -9 -10 -10 -10 -10 -9 -10 -10 -10 -9 -10
-19 -18 -17 -17 -17 -16 -16 -16 -16 -16 -15 -14 -14 -15 -15 -14 -14 -13 -13 -13 -13 -13 -13 -13 -11 -10 -10 -11 -10 -10 -10 -10 -10 -10 -10 -10 -10 -10 -10 -10 -10 -10 -10 -10 -9 -11 -10 -10 -10
-21 -19 -18 -17 -17 -17 -16 -16 -16 -16 -15 -14 -14 -14 -14 -13 -13 -13 -13 -13 -13 -13 -14 -14 -14 -13 -11 -10 -11 -10 -11 -11 -10 -10 -10 -10 -10 -11 -10 -10 -10 -10 -10 -10 -10 -10 -11 -10 -10
-23 -21 -19 -18 -18 -17 -16 -16 -16 -16 -15 -14 -14 -14 -14 -13 -12 -12 -13 -12 -12 -12 -13 -14 -15 -15 -13 -11 -10 -10 -10 -11 -10 -10 -10 -10 -10 -10 -10 -10 -10 -10 -10 -10 -11 -11 -11 -10 -10
-23 -23 -21 -19 -18 -17 -16 -16 -16 -16 -15 -15 -15 -14 -14 -13 -13 -12 -12 -12 -12 -14 -15 -15 -15 -16 -16 -13 -11 -10 -10 -11 -11 -11 -11 -10 -10 -10 -10 -10 -10 -10 -10 -10 -11 -11 -11 -12 -11
-22 -22 -22 -20 -18 -17 -16 -16 -16 -16 -16 -16 -14 -14 -14 -14 -13 -12 -12 -13 -12 -13 -14 -15 -15 -15 -16 -15 -13 -11 -10 -11 -11 -11 -11 -11 -10 -10 -10 -11 -10 -10 -10 -10 -11 -11 -11 -12 -11
-21 -22 -22 -21 -19 -18 -17 -16 -16 -16 -15 -15 -14 -14 -14 -14 -13 -13 -13 -13 -13 -14 -14 -14 -14 -15 -15 -15 -14 -12 -12 -11 -11 -11 -11 -11 -11 -10 -10 -10 -10 -10 -10 -11 -11 -10 -10 -11 -11
-21 -21 -20 -20 -20 -19 -17 -17 -16 -16 -16 -15 -14 -15 -14 -14 -13 -14 -13 -13 -14 -14 -14 -14 -14 -14 -15 -15 -14 -13 -12 -12 -11 -11 -11 -11 -10 -10 -11 -10 -10 -10 -11 -10 -11 -10 -10 -10 -11
-20 -19 -19 -19 -18 -18 -18 -17 -16 -16 -16 -15 -15 -15 -15 -14 -14 -14 -14 -14 -14 -14 -14 -14 -13 -14 -14 -14 -14 -13 -13 -12 -12 -12 -11 -11 -11 -10 -10 -10 -10 -10 -11 -10 -11 -10 -11 -10 -11
-19 -19 -19 -18 -18 -17 -17 -16 -16 -16 -15 -15 -15 -15 -15 -15 -15 -14 -14 -14 -14 -14 -14 -14 -14 -14 -14 -15 -14 -13 -13 -13 -13 -12 -11 -11 -11 -11 -11 -10 -10 -11 -11 -10 -10 -11 -10 -11 -11
-17 -18 -18 -18 -17 -16 -16 -16 -16 -16 -15 -15 -15 -15 -15 -15 -15 -14 -14 -14 -14 -14 -14 -14 -14 -15 -15 -14 -13 -13 -13 -13 -13 -12 -11 -11 -11 -11 -11 -10 -10 -10 -11 -10 -11 -11 -11 -11 -11
-15 -15 -15 -16 -16 -16 -16 -16 -16 -16 -16 -15 -15 -15 -15 -15 -15 -15 -14 -14 -14 -14 -14 -14 -14 -15 -14 -15 -14 -13 -14 -14 -13 -12 -12 -12 -11 -11 -11 -11 -11 -11 -11 -11 -11 -11 -11 -11 -12
Height
5804 5806 5809 5811 5815 5815 5817 5821 5825 5830 5832 5835 5838 5841 5844 5845 5847 5851 5853 5856 5857 5859 5860 5862 5865 5867 5870 5872 5874 5874 5875 5877 5878 5878 5880 5881 5881 5881 5882 5881 5882 5882 5884 5884 5884 5884 5884 5885 5885
5798 5801 5803 5805 5808 5810 5810 5815 5818 5820 5823 5827 5830 5833 5837 5839 5842 5844 5848 5852 5854 5855 5857 5859 5860 5862 5864 5868 5871 5873 5874 5874 5875 5877 5878 5880 5880 5880 5881 5880 5881 5882 5882 5882 5883 5884 5885 5884 5885
5792 5794 5796 5799 5801 5804 5801 5807 5808 5811 5814 5817 5822 5825 5828 5833 5836 5838 5843 5846 5849 5850 5852 5854 5856 5858 5860 5862 5866 5869 5871 5872 5873 5875 5876 5877 5879 5879 5880 5880 5880 5880 5881 5882 5882 5884 5884 5885 5885
5786 5788 5791 5792 5794 5796 5795 5799 5800 5801 5805 5807 5812 5816 5822 5826 5829 5833 5836 5838 5842 5844 5847 5849 5851 5853 5856 5857 5860 5864 5867 5869 5870 5871 5873 5875 5877 5878 5878 5879 5879 5879 5880 5881 5881 5882 5884 5884 5885
5779 5781 5782 5784 5786 5786 5788 5790 5794 5794 5796 5798 5802 5807 5813 5818 5822 5826 5829 5831 5835 5838 5840 5843 5846 5849 5851 5853 5854 5857 5861 5864 5866 5868 5870 5872 5874 5875 5876 5877 5877 5878 5878 5879 5880 5881 5882 5883 5884
5771 5773 5775 5777 5777 5778 5779 5782 5785 5786 5786 5791 5793 5798 5804 5809 5813 5818 5821 5825 5827 5832 5835 5837 5841 5843 5846 5848 5850 5852 5855 5858 5861 5864 5866 5869 5871 5873 5874 5874 5875 5876 5877 5877 5879 5880 5881 5882 5883
5763 5765 5767 5768 5768 5770 5771 5773 5774 5777 5777 5781 5786 5789 5795 5798 5801 5807 5812 5816 5819 5823 5827 5830 5834 5837 5840 5842 5845 5848 5850 5853 5857 5860 5862 5864 5867 5870 5872 5872 5873 5874 5876 5876 5877 5878 5878 5879 5881
5755 5758 5758 5759 5761 5762 5764 5765 5765 5767 5770 5771 5776 5781 5786 5785 5788 5796 5802 5806 5811 5814 5819 5823 5827 5831 5834 5837 5840 5843 5845 5849 5851 5855 5858 5860 5863 5866 5868 5870 5871 5872 5873 5874 5874 5875 5876 5877 5878
5747 5749 5749 5751 5752 5753 5755 5754 5754 5756 5759 5762 5763 5768 5772 5777 5780 5785 5792 5797 5802 5806 5810 5814 5818 5824 5828 5831 5834 5837 5840 5841 5845 5848 5853 5856 5859 5862 5864 5867 5868 5869 5870 5871 5872 5873 5874 5874 5875
5738 5739 5739 5741 5741 5743 5745 5745 5742 5744 5746 5746 5752 5756 5762 5769 5771 5775 5779 5786 5791 5796 5800 5804 5809 5814 5820 5824 5827 5830 5833 5836 5838 5844 5848 5852 5854 5858 5861 5863 5865 5865 5867 5868 5869 5870 5871 5872 5872
5728 5728 5729 5729 5730 5732 5732 5731 5731 5731 5732 5736 5742 5744 5749 5755 5761 5764 5768 5772 5778 5784 5789 5794 5799 5805 5810 5816 5819 5822 5826 5830 5834 5838 5842 5846 5849 5852 5856 5858 5860 5862 5863 5865 5866 5868 5869 5869 5870
5717 5717 5717 5716 5718 5720 5720 5719 5719 5721 5721 5724 5729 5732 5735 5739 5747 5752 5755 5758 5763 5769 5778 5784 5787 5793 5800 5805 5811 5815 5819 5824 5828 5832 5835 5839 5843 5846 5849 5852 5854 5856 5858 5861 5862 5863 5865 5866 5867
5707 5706 5707 5707 5706 5709 5710 5708 5710 5709 5711 5713 5719 5721 5724 5726 5729 5735 5740 5746 5750 5756 5763 5771 5777 5782 5788 5794 5800 5806 5811 5816 5821 5825 5828 5833 5836 5839 5843 5846 5848 5850 5852 5854 5857 5859 5860 5861 5863
5697 5698 5697 5697 5697 5701 5702 5699 5702 5703 5703 5704 5707 5709 5711 5713 5714 5720 5726 5732 5737 5742 5749 5754 5763 5770 5775 5783 5789 5795 5801 5808 5812 5817 5822 5827 5830 5833 5837 5840 5842 5844 5846 5848 5850 5853 5855 5857 5857
5688 5689 5689 5689 5690 5692 5693 5694 5694 5695 5694 5693 5695 5697 5699 5700 5701 5707 5711 5718 5722 5728 5732 5739 5747 5756 5764 5769 5777 5784 5790 5796 5802 5809 5814 5820 5824 5827 5831 5833 5837 5838 5840 5842 5844 5847 5848 5850 5852
5679 5681 5681 5681 5683 5685 5688 5689 5689 5690 5688 5688 5689 5689 5691 5691 5692 5694 5697 5703 5707 5713 5720 5725 5732 5739 5749 5758 5765 5772 5778 5784 5793 5799 5805 5811 5816 5819 5822 5826 5829 5832 5835 5836 5839 5840 5842 5843 5845
5670 5671 5673 5674 5675 5678 5681 5683 5684 5685 5684 5684 5684 5684 5684 5685 5685 5683 5684 5687 5692 5696 5702 5710 5716 5722 5732 5744 5750 5759 5766 5773 5782 5789 5796 5802 5807 5810 5814 5817 5821 5823 5826 5829 5832 5834 5836 5837 5838
5659 5661 5665 5666 5668 5672 5676 5679 5679 5680 5680 5679 5679 5678 5678 5680 5678 5672 5670 5673 5676 5679 5685 5691 5698 5705 5714 5725 5733 5743 5753 5763 5768 5777 5786 5792 5797 5801 5806 5809 5813 5815 5818 5821 5825 5827 5828 5830 5832
5649 5652 5656 5659 5661 5667 5670 5674 5674 5675 5674 5673 5672 5671 5671 5669 5665 5662 5662 5665 5667 5668 5670 5675 5684 5693 5697 5709 5719 5728 5738 5750 5757 5765 5774 5783 5790 5793 5798 5801 5804 5806 5812 5814 5816 5819 5822 5823 5824
5638 5641 5645 5651 5655 5662 5664 5670 5670 5670 5668 5668 5667 5666 5662 5659 5657 5656 5654 5654 5655 5655 5656 5658 5664 5671 5680 5693 5705 5714 5726 5735 5747 5757 5767 5777 5782 5784 5788 5791 5795 5799 5803 5806 5809 5812 5815 5816 5818
5625 5630 5639 5646 5648 5655 5661 5663 5665 5664 5663 5664 5663 5660 5655 5651 5651 5650 5648 5645 5645 5644 5643 5645 5649 5654 5662 5676 5687 5700 5708 5721 5731 5743 5751 5762 5767 5775 5777 5784 5787 5789 5793 5798 5800 5803 5806 5808 5809
5619 5620 5627 5635 5643 5652 5657 5659 5658 5659 5659 5660 5659 5656 5651 5647 5645 5643 5641 5638 5637 5632 5631 5632 5635 5639 5645 5655 5669 5685 5698 5710 5721 5732 5743 5754 5761 5765 5769 5774 5779 5781 5783 5787 5791 5794 5796 5797 5801
5617 5616 5619 5629 5640 5649 5653 5655 5655 5657 5658 5658 5656 5653 5647 5643 5641 5634 5634 5635 5631 5624 5619 5620 5626 5631 5635 5640 5651 5668 5685 5698 5709 5721 5734 5743 5748 5756 5761 5765 5769 5772 5774 5779 5782 5783 5785 5789 5790
5618 5617 5622 5629 5637 5645 5649 5652 5654 5655 5657 5656 5653 5650 5645 5641 5637 5633 5633 5631 5627 5622 5614 5614 5619 5624 5628 5632 5639 5655 5673 5686 5697 5709 5719 5729 5737 5746 5751 5755 5760 5763 5766 5768 5772 5774 5775 5778 5779
5627 5628 5630 5634 5638 5643 5647 5651 5653 5653 5655 5654 5651 5649 5644 5640 5636 5632 5632 5629 5626 5620 5616 5612 5612 5616 5617 5622 5631 5647 5664 5680 5688 5698 5709 5720 5729 5735 5742 5744 5750 5753 5756 5760 5763 5761 5761 5766 5768
5637 5638 5639 5641 5642 5645 5648 5651 5652 5653 5652 5652 5649 5647 5644 5640 5634 5632 5631 5627 5625 5620 5617 5616 5614 5614 5614 5615 5627 5647 5668 5670 5677 5690 5702 5712 5721 5729 5733 5735 5739 5740 5745 5748 5752 5752 5750 5754 5757
5644 5644 5645 5646 5647 5649 5651 5652 5654 5653 5653 5651 5650 5647 5644 5641 5638 5635 5632 5628 5624 5623 5620 5617 5617 5617 5618 5624 5629 5644 5645 5661 5672 5685 5696 5707 5713 5718 5721 5725 5728 5729 5735 5739 5742 5743 5745 5745 5749
5650 5650 5650 5650 5652 5652 5653 5653 5654 5654 5653 5651 5650 5649 5646 5644 5641 5637 5635 5631 5627 5626 5623 5620 5620 5622 5621 5623 5631 5641 5650 5660 5672 5682 5691 5700 5707 5709 5712 5714 5716 5721 5724 5728 5728 5731 5733 5737 5738
5658 5654 5653 5653 5655 5655 5655 5655 5654 5653 5652 5652 5649 5649 5648 5645 5643 5640 5638 5635 5633 5630 5627 5624 5623 5621 5623 5626 5633 5643 5652 5664 5672 5679 5686 5692 5697 5700 5702 5704 5705 5709 5712 5715 5719 5722 5724 5725 5728
5669 5664 5661 5658 5657 5654 5654 5654 5652 5651 5651 5650 5650 5649 5649 5646 5644 5642 5640 5639 5635 5634 5632 5628 5628 5627 5628 5627 5636 5646 5654 5662 5667 5674 5682 5684 5688 5693 5694 5694 5698 5700 5705 5709 5709 5711 5714 5716 5718
Wind_Speed
29 31 33 33 37 44 49 50 44 42 41 39 38 38 37 36 35 34 30 26 25 21 22 26 30 31 29 27 23 23 22 19 16 12 12 11 12 12 9 8 11 10 7 8 6 6 7 8 6
29 29 30 33 34 33 38 40 45 48 46 43 42 41 40 40 39 37 34 30 28 27 25 23 24 30 32 30 29 25 25 22 19 16 13 14 12 13 12 8 11 11 9 7 6 6 6 7 6
30 30 30 30 30 31 38 34 35 40 47 49 48 45 44 43 41 41 38 34 32 31 29 28 27 25 29 31 31 30 28 26 23 20 17 14 15 14 14 10 11 12 10 8 7 6 5 5 6
32 31 31 31 32 33 36 33 35 39 39 46 51 50 47 45 44 44 42 42 38 36 35 33 32 28 26 28 31 32 32 31 27 24 20 17 15 16 14 14 13 12 11 10 8 7 7 6 6
37 37 36 37 38 41 41 41 40 40 41 43 45 50 50 48 47 45 46 46 43 41 39 37 35 33 32 29 28 32 34 34 32 29 25 21 18 17 16 14 14 15 13 11 10 8 8 9 7
40 40 38 37 37 40 44 44 44 45 47 45 45 44 49 51 50 49 49 49 48 45 44 41 39 36 34 32 31 29 32 35 35 33 30 26 21 18 18 16 15 15 15 13 11 9 8 8 9
41 40 39 38 38 40 42 45 47 47 49 49 47 46 45 48 54 53 51 51 52 50 49 46 44 40 38 35 34 32 30 33 34 36 35 31 27 22 18 18 17 15 14 14 12 11 9 9 9
41 41 42 41 39 40 40 43 48 50 50 49 49 48 46 47 54 56 56 56 55 55 53 52 48 44 42 39 36 35 34 32 34 36 36 35 31 27 23 19 19 17 13 14 14 14 12 10 10
39 40 42 43 43 43 41 45 50 52 53 56 53 51 53 50 51 56 59 59 58 58 57 56 54 50 47 44 41 38 37 36 34 34 36 35 34 31 27 22 20 19 18 14 15 16 14 12 12
38 39 42 44 46 48 48 48 52 54 55 56 60 57 55 55 52 53 59 62 61 61 61 60 59 56 51 48 46 44 42 39 37 34 32 36 36 33 31 28 24 20 19 20 18 16 16 15 14
38 41 44 46 49 50 53 55 58 59 54 58 60 59 58 56 56 55 55 61 65 64 64 64 62 61 57 54 51 49 46 43 40 35 35 33 39 36 34 32 29 26 22 19 19 21 19 17 17
42 45 46 50 53 53 53 51 53 54 57 56 54 56 57 58 57 57 58 59 64 66 66 66 67 65 62 60 57 54 52 48 44 40 39 34 37 39 36 35 34 32 29 24 20 19 21 22 22
42 44 46 44 44 44 42 45 47 53 52 52 50 51 53 55 58 59 62 61 62 66 68 68 69 68 66 64 61 59 56 51 47 43 39 37 37 40 40 38 36 35 34 32 28 22 20 20 21
39 36 38 38 39 37 39 42 42 44 44 45 46 48 50 53 56 57 60 63 64 63 68 71 72 72 71 68 66 62 59 54 51 46 43 38 39 38 40 41 40 38 37 36 34 31 25 22 21
32 32 35 37 36 37 34 29 30 32 35 39 39 36 42 51 56 57 60 62 65 65 66 71 74 74 73 73 70 66 63 60 56 52 48 43 39 40 38 41 43 42 40 39 37 34 32 30 26
34 33 34 36 35 34 30 27 23 18 20 22 21 24 29 35 43 51 57 62 64 67 66 68 73 77 76 75 73 70 68 64 60 54 51 49 44 43 45 39 42 44 43 41 39 38 35 32 31
36 36 33 34 32 31 31 27 22 16 17 19 19 19 25 29 32 39 43 53 61 65 68 69 71 76 79 76 77 75 71 67 62 59 53 49 47 49 48 47 42 46 46 44 43 41 39 36 34
28 30 30 29 31 31 34 27 25 22 22 21 23 23 23 24 32 41 42 41 48 59 65 70 70 73 78 81 78 78 75 71 65 62 57 52 50 50 48 49 51 47 48 47 46 45 42 39 37
32 29 31 31 31 31 35 30 29 27 27 25 26 27 27 28 33 40 40 37 40 45 56 60 68 71 76 78 81 80 77 73 67 66 60 54 51 53 45 44 55 53 49 44 48 48 47 43 40
32 33 32 34 34 31 34 30 32 30 32 29 28 28 28 30 30 26 31 33 36 42 50 50 58 70 76 76 78 81 77 74 71 63 61 55 54 53 52 45 50 54 50 47 46 48 47 46 42
24 33 33 29 29 31 30 31 32 34 35 29 25 22 20 25 25 27 32 34 31 36 45 51 54 56 75 76 76 79 82 77 72 68 64 63 60 54 53 47 43 53 57 51 49 49 50 50 47
5 18 29 31 26 21 22 27 31 32 27 22 21 15 20 25 20 24 29 28 28 39 40 45 49 54 61 80 78 76 78 77 76 70 64 61 55 53 52 51 50 48 57 55 54 52 52 53 49
2 7 20 25 22 18 19 20 23 21 18 17 19 22 23 11 18 20 15 16 17 24 29 32 43 42 52 65 81 76 73 74 73 65 62 59 59 60 62 53 52 48 56 56 56 54 55 54 55
13 10 16 20 22 20 19 20 17 14 11 14 18 14 13 8 10 6 12 4 9 14 12 26 33 33 40 46 67 78 72 70 69 66 63 62 61 58 56 56 52 53 55 53 58 58 59 54 58
29 20 17 16 20 19 15 12 10 7 8 7 11 14 11 11 6 2 6 10 7 5 9 10 23 31 34 34 49 67 67 64 65 66 62 61 57 58 57 53 51 53 62 58 48 53 59 60 61
25 24 19 18 15 12 8 5 3 2 3 7 8 9 7 14 12 6 6 11 8 11 14 16 6 3 22 18 34 48 48 64 64 63 60 59 58 58 49 52 56 59 61 60 58 57 67 62 65
25 21 18 16 14 12 9 6 2 2 0 2 11 6 17 21 9 5 4 6 13 5 7 9 4 6 10 20 35 54 54 59 54 53 53 55 57 58 51 65 54 54 59 64 61 62 68 68 57
23 21 17 14 13 9 5 2 3 3 2 4 10 8 17 16 16 12 10 12 3 16 4 4 4 9 14 15 35 44 50 51 49 48 52 48 54 55 46 55 60 61 54 61 57 60 60 57 51
38 23 18 15 11 6 2 4 5 6 4 5 10 6 13 13 13 11 12 11 10 8 8 4 7 8 9 20 29 39 42 47 42 47 41 51 27 33 37 47 62 56 43 47 51 51 45 44 42
41 41 41 31 21 11 7 11 10 10 8 6 6 6 6 6 8 13 10 10 16 15 13 7 5 4 9 15 34 40 20 26 41 40 46 34 36 30 23 22 31 38 36 41 36 38 40 37 39
Wind_Direction
251 254 247 248 247 247 248 250 252 249 248 247 248 244 237 236 235 238 241 240 246 242 237 235 237 240 240 243 240 234 226 225 224 219 219 205 192 193 193 173 168 158 151 132 122 122 127 121 109
249 252 251 249 250 251 253 252 252 249 248 246 244 245 242 236 234 236 238 236 238 241 242 237 234 235 237 239 241 241 236 228 226 224 223 218 205 197 201 199 184 177 168 153 152 145 148 141 131
248 248 248 251 251 252 254 252 255 250 245 246 244 242 241 239 236 234 235 233 233 236 238 239 237 235 236 235 236 239 241 236 229 228 226 226 218 207 205 211 200 187 186 175 173 176 168 165 158
249 247 246 250 252 252 257 255 250 252 249 245 243 242 239 239 237 236 231 232 228 231 233 235 238 236 236 237 235 237 238 240 234 230 228 227 226 219 210 214 205 195 195 195 189 196 197 190 192
249 250 250 249 251 254 254 254 254 257 254 249 245 241 239 238 237 235 233 235 230 229 230 233 238 239 237 236 236 236 237 239 237 236 233 230 228 226 220 217 211 203 197 202 205 203 215 213 213
248 251 253 254 255 258 256 254 253 259 259 253 249 244 240 238 237 236 233 233 235 229 230 232 233 236 238 237 236 237 236 236 237 236 236 236 232 230 227 222 217 212 206 204 210 212 217 230 232
248 249 253 253 254 256 257 257 256 256 259 258 253 249 242 240 236 234 235 232 233 232 231 230 231 233 237 237 237 239 240 237 239 239 235 235 237 233 235 229 224 218 218 214 213 216 214 224 235
247 249 254 256 256 256 258 258 259 256 255 256 257 250 248 241 236 232 232 234 231 233 232 232 231 230 233 237 237 237 237 239 236 240 242 236 237 236 233 236 236 229 219 222 220 219 216 220 233
248 255 258 259 259 259 258 259 258 258 255 254 253 251 245 245 240 234 232 233 234 231 233 232 233 231 231 235 237 238 239 239 239 236 240 242 238 238 236 232 237 239 233 226 225 224 223 225 230
256 260 260 264 266 263 263 264 265 259 256 254 252 249 249 245 244 240 234 231 232 233 232 233 234 233 230 230 234 237 240 240 242 243 241 244 241 239 241 239 238 239 238 235 234 233 230 232 237
261 262 265 270 270 267 266 267 265 264 259 254 253 251 248 246 244 243 241 235 231 231 232 233 234 234 233 230 230 235 238 241 242 240 247 241 244 241 239 241 241 245 244 240 240 241 241 238 240
265 266 270 272 270 270 268 265 261 258 254 252 250 250 251 248 244 242 242 240 235 232 230 231 234 234 233 233 233 235 239 240 242 241 242 241 239 239 236 237 239 241 245 245 242 243 247 248 248
267 268 269 264 261 263 259 257 255 255 253 252 250 249 249 249 246 243 239 240 240 234 232 230 231 234 234 233 233 234 237 239 239 240 241 240 241 237 240 236 236 239 242 244 246 245 247 251 253
264 262 260 258 256 252 255 258 258 259 260 261 257 253 250 248 247 244 242 238 238 237 233 231 229 230 233 235 234 232 235 236 237 238 239 240 244 239 239 240 238 237 239 242 243 245 248 252 256
258 256 258 256 254 251 249 252 257 258 257 256 255 255 253 251 248 247 244 240 238 237 236 233 230 229 230 233 233 234 233 234 235 237 239 238 240 242 240 244 244 239 239 240 243 244 246 248 253
258 251 256 255 252 247 235 250 251 246 250 253 256 265 256 252 254 254 250 244 241 238 237 236 232 228 227 230 233 233 233 234 233 234 236 235 237 238 240 247 247 247 245 240 241 243 243 245 249
260 257 249 247 246 244 236 243 244 258 261 260 260 260 262 261 261 260 254 250 244 241 239 235 234 233 225 225 231 232 233 234 233 233 232 233 234 237 235 241 245 247 246 244 243 243 246 247 249
261 250 240 244 249 242 236 243 248 260 258 261 260 266 259 257 256 257 254 249 246 242 240 236 233 232 231 223 224 229 232 233 232 231 231 229 229 238 237 238 241 245 248 247 245 246 245 247 252
262 252 245 244 246 240 238 243 248 260 260 263 269 271 277 273 269 257 257 252 253 248 240 241 235 233 232 229 222 224 229 230 232 230 229 230 231 232 234 244 240 246 251 249 245 248 247 247 248
254 251 245 241 246 240 239 239 248 257 262 263 269 279 281 274 267 268 268 260 253 248 246 241 233 227 230 231 226 222 224 230 231 232 231 231 232 233 237 240 241 245 248 248 252 249 251 252 251
248 240 240 240 240 237 238 242 249 256 260 266 277 288 278 264 261 265 266 266 263 254 248 244 241 233 223 226 228 224 222 224 229 229 230 235 226 228 232 238 247 246 246 247 247 253 253 253 252
304 235 223 225 230 228 228 236 242 253 266 272 287 300 299 285 274 274 261 266 263 261 258 248 238 236 229 219 223 225 223 224 225 228 228 227 233 238 237 243 244 251 248 246 250 251 251 253 253
249 256 199 203 207 209 216 231 245 257 265 281 302 306 310 290 292 298 246 270 288 288 262 248 235 241 235 227 218 219 220 222 224 226 226 225 227 231 239 239 243 247 249 246 247 250 247 256 255
51 94 145 157 169 185 205 228 248 258 266 312 326 309 316 342 285 262 223 305 251 293 299 237 228 236 239 240 223 214 214 218 221 222 222 223 226 228 232 235 244 245 246 247 247 252 254 250 254
58 78 111 135 152 172 195 232 248 249 268 341 339 325 335 22 335 250 243 319 353 320 94 116 214 226 230 237 226 214 210 213 218 218 219 220 221 227 235 233 238 249 243 242 251 248 246 254 253
65 68 79 84 111 121 165 159 104 306 327 23 20 17 42 19 42 115 113 352 29 87 135 15 335 215 200 190 213 197 215 213 215 219 218 219 226 230 236 238 238 238 232 237 252 252 252 252 257
60 74 76 82 89 110 112 117 85 37 302 5 5 63 40 32 36 50 121 44 357 340 319 334 30 304 245 197 194 199 209 205 211 216 217 222 227 225 243 237 242 239 244 239 253 252 253 251 255
55 57 67 73 79 85 103 108 48 28 241 300 357 356 16 31 36 34 106 112 21 42 22 241 318 213 223 224 200 201 207 203 206 214 215 224 233 243 247 238 242 242 238 243 247 246 247 250 253
51 51 48 48 56 56 352 306 295 336 351 326 348 311 355 351 20 60 103 100 87 69 18 68 44 321 231 213 198 201 200 205 206 213 216 223 237 236 244 243 237 233 242 249 242 247 251 255 251
50 51 53 53 43 23 321 297 292 295 306 309 318 333 326 34 28 49 109 106 106 82 77 79 320 321 154 173 187 193 204 219 217 212 227 258 261 247 238 236 230 234 243 240 249 250 259 261 262